This is the latest recevied weather packets stored in our database for station/object AE0NK. If no packets are shown the sender has not sent any weather packets the latest 10 day(s).
| Time | Temp. | Humidity | Pressure | Rain* | Wind** | Luminosity | Snow |
|---|---|---|---|---|---|---|---|
| 1777680500 | 11.67° C | 49% | 1016.7 hPa | 0 mm | - | 70 W/m² | - |
| 1777680192 | 11.67° C | 50% | 1016.6 hPa | 0 mm | - | 39 W/m² | - |
| 1777679908 | 11.67° C | 48% | 1016.6 hPa | 0 mm | - | 40 W/m² | - |
| 1777679606 | 12.22° C | 48% | 1016.7 hPa | 0 mm | - | 42 W/m² | - |
| 1777679302 | 12.22° C | 49% | 1016.6 hPa | 0 mm | - | 46 W/m² | - |
| 1777678999 | 12.22° C | 48% | 1016.7 hPa | 0 mm | - | 47 W/m² | - |
| 1777678698 | 12.22° C | 46% | 1016.7 hPa | 0 mm | - | 49 W/m² | - |
| 1777678396 | 12.22° C | 45% | 1016.7 hPa | 0 mm | - | 56 W/m² | - |
| 1777678095 | 12.22° C | 50% | 1016.7 hPa | 0 mm | - | 62 W/m² | - |
| 1777677793 | 12.22° C | 49% | 1016.7 hPa | 0 mm | - | 44 W/m² | - |
| 1777677493 | 12.22° C | 46% | 1016.7 hPa | 0 mm | - | 62 W/m² | - |
| 1777677210 | 12.22° C | 47% | 1016.7 hPa | 0 mm | - | 69 W/m² | - |
| 1777676908 | 12.22° C | 47% | 1016.6 hPa | 0 mm | - | 83 W/m² | - |
| 1777676605 | 12.22° C | 45% | 1016.7 hPa | 0 mm | - | 204 W/m² | - |
| 1777676300 | 12.22° C | 45% | 1016.6 hPa | 0 mm | - | 167 W/m² | - |
| 1777675997 | 12.22° C | 47% | 1016.8 hPa | 0 mm | - | 195 W/m² | - |
| 1777675697 | 12.22° C | 50% | 1016.7 hPa | 0 mm | - | 313 W/m² | - |
| 1777675394 | 11.67° C | 52% | 1016.8 hPa | 0 mm | - | 225 W/m² | - |
| 1777675091 | 11.67° C | 56% | 1016.8 hPa | 0 mm | - | 153 W/m² | - |
| 1777674807 | 11.67° C | 53% | 1016.8 hPa | 0 mm | - | 118 W/m² | - |
| 1777674504 | 11.67° C | 53% | 1016.9 hPa | 0 mm | - | 125 W/m² | - |
| 1777674201 | 11.67° C | 57% | 1016.9 hPa | 0 mm | - | 234 W/m² | - |
| 1777673898 | 11.11° C | 57% | 1016.8 hPa | 0 mm | - | 225 W/m² | - |
| 1777673595 | 11.11° C | 64% | 1017 hPa | 0 mm | - | 227 W/m² | - |
| 1777673292 | 10.56° C | 61% | 1016.9 hPa | 0 mm | - | 176 W/m² | - |
* Rain latest hour (hover to see other rain measurements)
** Current wind speed in m/s (hover to see current wind gust speed)